Weather History for Lake Charles, LA

Change the Weather History Date:

Tuesday, October 9, 2012

  Actual Average Record
Temperature  
Mean Temperature 64 °F -  
Max Temperature 80 °F 78 °F 87 °F (2001)
Min Temperature 48 °F 63 °F 44 °F (2000)
Degree Days  
Heating Degree Days 1    
Growing Degree Days 14 (Base 50)    
Moisture  
Dew Point 54 °F    
Average Humidity 82    
Maximum Humidity 93    
Minimum Humidity 45    
Precipitation  
Precipitation 0.00 in - - ()
Sea Level Pressure  
Sea Level Pressure 30.09 in    
Wind  
Wind Speed 4 mph (ESE)    
Max Wind Speed 10 mph    
Max Gust Speed -    
Visibility 10 miles    
Events      
Averages and records for this station are not official NWS values.
T = Trace of Precipitation, MM = Missing Value Source: NWS Daily Summary

Daily Weather History Graph

Daily Weather History Graph

Search for Another Location

Airport:

Trip Planner

Search our weather history database for the weather conditions in past years. The results will help you decide how hot, cold, wet, or windy it might be!

Date:

Astronomy

Oct. 09, 2012 Rise Set
Actual Time 7:11 AM CDT 6:47 PM CDT
Civil Twilight 6:47 AM CDT 7:11 PM CDT
Nautical Twilight 6:19 AM CDT 7:39 PM CDT
Astronomical Twilight 5:51 AM CDT 8:07 PM CDT
Moon 1:13 AM CDT (10/9) 2:53 PM CDT (10/9)
Length of Visible Light 12h 24m
Length of Day
11h 36m
Last Quarter, 36% of the Moon is Illuminated
Oct 9
Last Quarter
Oct 15
New
Oct 21
First Quarter
Oct 29
Full
Nov 6
Last Quarter

Hourly Weather History & Observations

Time (CDT) Temp. Heat Index Dew Point Humidity Pressure Visibility Wind Dir Wind Speed Gust Speed Precip Events Conditions
12:15 AM 54.5 °F - 49.8 °F 84% 30.14 in 10.0 mi NE 5.8 mph - N/A   Clear
12:35 AM 54.1 °F - 49.6 °F 85% 30.13 in 10.0 mi ENE 6.9 mph - N/A   Clear
12:55 AM 53.6 °F - 49.5 °F 86% 30.13 in 10.0 mi ENE 4.6 mph - N/A   Clear
1:15 AM 53.2 °F - 49.3 °F 86% 30.13 in 10.0 mi NE 4.6 mph - N/A   Clear
1:35 AM 52.9 °F - 49.1 °F 87% 30.13 in 10.0 mi ENE 5.8 mph - N/A   Clear
1:55 AM 52.3 °F - 49.1 °F 89% 30.12 in 10.0 mi NE 4.6 mph - N/A   Clear
2:15 AM 52.3 °F - 49.1 °F 89% 30.12 in 10.0 mi ENE 5.8 mph - N/A   Clear
2:55 AM 51.8 °F - 48.6 °F 89% 30.12 in 10.0 mi NE 3.5 mph - N/A   Clear
3:15 AM 51.1 °F - 48.2 °F 90% 30.12 in 10.0 mi NE 3.5 mph - N/A   Clear
3:35 AM 51.1 °F - 48.2 °F 90% 30.12 in 10.0 mi Calm Calm - N/A   Clear
3:55 AM 50.9 °F - 48.2 °F 90% 30.12 in 10.0 mi Calm Calm - N/A   Clear
4:15 AM 50.9 °F - 48.2 °F 90% 30.12 in 10.0 mi Calm Calm - N/A   Clear
4:35 AM 50.7 °F - 48.0 °F 90% 30.12 in 10.0 mi Calm Calm - N/A   Clear
4:55 AM 50.4 °F - 47.8 °F 91% 30.12 in 10.0 mi Calm Calm - N/A   Clear
5:15 AM 50.7 °F - 48.0 °F 90% 30.12 in 10.0 mi Calm Calm - N/A   Clear
5:35 AM 50.2 °F - 47.3 °F 90% 30.13 in 10.0 mi Calm Calm - N/A   Clear
5:55 AM 50.2 °F - 47.8 °F 92% 30.13 in 10.0 mi Calm Calm - N/A   Clear
6:00 AM 50.0 °F - 46.4 °F 87% 30.13 in 10.0 mi Calm Calm - N/A   Clear
6:55 AM 48.2 °F - 46.4 °F 93% 30.13 in 10.0 mi Calm Calm - N/A   Clear
7:50 AM 51.8 °F - 48.2 °F 88% 30.14 in 10.0 mi Calm Calm - N/A   Clear
8:58 AM 57.2 °F - 53.6 °F 88% 30.14 in 10.0 mi East 4.6 mph - N/A   Clear
9:58 AM 62.6 °F - 53.6 °F 72% 30.14 in 10.0 mi ESE 5.8 mph - N/A   Clear
10:51 AM 66.2 °F - 55.4 °F 68% 30.15 in 10.0 mi ESE 4.6 mph - N/A   Clear
11:59 AM 71.6 °F - 57.2 °F 60% 30.12 in 10.0 mi Calm Calm - N/A   Clear
12:58 PM 75.2 °F - 59.0 °F 57% 30.09 in 10.0 mi Calm Calm - N/A   Clear
1:57 PM 77.0 °F - 59.0 °F 54% 30.05 in 10.0 mi Calm Calm - N/A   Clear
2:50 PM 80.6 °F 80.8 °F 57.2 °F 45% 30.03 in 10.0 mi Calm Calm - N/A   Partly Cloudy
4:48 PM 78.8 °F - 59.0 °F 51% 30.00 in 10.0 mi SSE 4.6 mph - N/A   Scattered Clouds
5:50 PM 77.0 °F - 62.6 °F 61% 30.00 in 10.0 mi SW 10.4 mph - N/A   Scattered Clouds
6:50 PM 73.4 °F - 64.4 °F 73% 30.01 in 10.0 mi South 6.9 mph - N/A   Clear
7:50 PM 69.8 °F - 62.6 °F 78% 30.02 in 10.0 mi South 6.9 mph - N/A   Clear
8:55 PM 68.0 °F - 62.6 °F 83% 30.03 in 10.0 mi South 6.9 mph - N/A   Clear
9:50 PM 64.4 °F - 60.8 °F 88% 30.03 in 10.0 mi SSE 6.9 mph - N/A   Clear
10:15 PM 64.4 °F - 61.5 °F 90% 30.05 in 10.0 mi SSE 5.8 mph - N/A   Clear
10:35 PM 63.9 °F - 60.8 °F 90% 30.05 in 10.0 mi SSE 3.5 mph - N/A   Clear
10:55 PM 64.6 °F - 61.7 °F 90% 30.05 in 10.0 mi SE 3.5 mph - N/A   Clear
11:15 PM 63.0 °F - 60.1 °F 90% 30.04 in 10.0 mi SE 5.8 mph - N/A   Clear
11:35 PM 63.9 °F - 61.0 °F 90% 30.05 in 10.0 mi SSE 4.6 mph - N/A   Clear
11:55 PM 63.1 °F - 60.4 °F 91% 30.05 in 10.0 mi SSE 3.5 mph - N/A   Clear